Time,TemperatureF,DewpointF,PressureIn,WindDirection,WindDirectionDegrees,WindSpeedMPH,WindSpeedGustMPH,Humidity,HourlyPrecipIn,Conditions,Clouds,dailyrainin,SoftwareType,DateUTC
2013-05-12 00:01:00,59.2,58.6,29.68,SW,229,0.0,0.0,98,0.00,,,0.43,meteohub,2013-05-12 04:01:00,
2013-05-12 00:02:00,59.2,58.6,29.68,SW,229,0.0,0.0,98,0.00,,,0.43,meteohub,2013-05-12 04:02:00,
2013-05-12 00:07:00,59.2,58.6,29.68,SW,229,0.0,0.0,98,0.00,,,0.00,meteohub,2013-05-12 04:07:00,
2013-05-12 00:12:00,59.2,58.6,29.68,SW,229,0.0,0.0,98,0.00,,,0.00,meteohub,2013-05-12 04:12:00,
2013-05-12 00:17:00,59.2,58.6,29.68,SW,229,0.0,0.0,98,0.00,,,0.00,meteohub,2013-05-12 04:17:00,
2013-05-12 00:22:00,59.0,58.5,29.68,SW,229,0.0,0.0,98,0.00,,,0.00,meteohub,2013-05-12 04:22:00,
2013-05-12 00:27:00,58.8,58.3,29.68,SW,229,0.0,0.0,98,0.00,,,0.00,meteohub,2013-05-12 04:27:00,
2013-05-12 00:32:00,58.8,58.3,29.68,SW,229,0.0,0.0,98,0.00,,,0.00,meteohub,2013-05-12 04:32:00,
2013-05-12 00:38:00,58.8,58.3,29.68,SW,229,0.0,0.0,98,0.00,,,0.00,meteohub,2013-05-12 04:38:00,
2013-05-12 00:43:00,58.8,58.3,29.68,SW,229,0.0,0.0,98,0.00,,,0.00,meteohub,2013-05-12 04:43:00,
2013-05-12 00:48:00,58.8,58.3,29.68,SW,229,0.0,0.0,98,0.00,,,0.00,meteohub,2013-05-12 04:48:00,
2013-05-12 00:53:00,58.8,58.3,29.68,SW,229,0.0,0.0,98,0.00,,,0.00,meteohub,2013-05-12 04:53:00,
2013-05-12 00:58:00,58.8,58.3,29.68,SW,229,0.0,0.0,98,0.00,,,0.00,meteohub,2013-05-12 04:58:00,
2013-05-12 01:03:00,59.2,58.6,29.67,SW,229,0.0,0.0,98,0.00,,,0.00,meteohub,2013-05-12 05:03:00,
2013-05-12 01:08:00,59.2,58.6,29.67,SW,229,0.0,0.0,98,0.00,,,0.00,meteohub,2013-05-12 05:08:00,
2013-05-12 01:13:00,59.4,58.8,29.67,SW,229,0.0,0.0,98,0.00,,,0.00,meteohub,2013-05-12 05:13:00,
2013-05-12 01:18:00,59.5,59.0,29.67,SW,229,0.0,0.0,98,0.00,,,0.00,meteohub,2013-05-12 05:18:00,
2013-05-12 01:23:00,59.7,59.2,29.66,SW,229,0.0,0.0,98,0.00,,,0.00,meteohub,2013-05-12 05:23:00,
2013-05-12 01:28:00,59.7,59.2,29.66,SW,229,0.0,0.0,98,0.00,,,0.00,meteohub,2013-05-12 05:28:00,
2013-05-12 01:33:00,59.7,59.2,29.66,SW,229,0.0,0.0,98,0.00,,,0.00,meteohub,2013-05-12 05:33:00,
2013-05-12 01:38:00,59.7,59.2,29.65,SW,229,0.0,0.0,98,0.00,,,0.00,meteohub,2013-05-12 05:38:00,
2013-05-12 01:43:00,59.9,59.4,29.65,SW,229,0.0,0.0,98,0.00,,,0.00,meteohub,2013-05-12 05:43:00,
2013-05-12 01:48:00,59.7,59.2,29.66,SW,229,0.0,0.0,98,0.00,,,0.00,meteohub,2013-05-12 05:48:00,
2013-05-12 01:53:00,59.7,59.2,29.66,SW,229,0.0,0.0,98,0.00,,,0.00,meteohub,2013-05-12 05:53:00,
2013-05-12 01:58:00,59.7,59.2,29.65,SW,229,0.0,0.0,98,0.00,,,0.00,meteohub,2013-05-12 05:58:00,
2013-05-12 02:03:00,59.7,59.2,29.66,SW,229,0.0,0.0,98,0.00,,,0.00,meteohub,2013-05-12 06:03:00,
2013-05-12 02:08:00,59.9,59.4,29.66,SW,229,0.0,0.0,98,0.00,,,0.00,meteohub,2013-05-12 06:08:00,
2013-05-12 02:13:00,59.9,59.4,29.65,SW,229,0.0,0.0,98,0.00,,,0.00,meteohub,2013-05-12 06:13:00,
2013-05-12 02:18:00,59.9,59.4,29.65,SW,229,0.0,0.0,98,0.00,,,0.00,meteohub,2013-05-12 06:18:00,
2013-05-12 02:23:00,59.7,59.2,29.65,SW,229,0.0,0.0,98,0.00,,,0.00,meteohub,2013-05-12 06:23:00,
2013-05-12 02:28:00,59.7,59.2,29.64,SW,229,0.0,0.0,98,0.00,,,0.00,meteohub,2013-05-12 06:28:00,
2013-05-12 02:33:00,59.7,59.2,29.64,SW,229,0.0,0.0,98,0.00,,,0.00,meteohub,2013-05-12 06:33:00,
2013-05-12 02:39:00,59.7,59.2,29.64,SW,229,0.0,0.0,98,0.00,,,0.00,meteohub,2013-05-12 06:39:00,
2013-05-12 02:44:00,59.7,59.2,29.62,SW,229,0.0,0.0,98,0.00,,,0.00,meteohub,2013-05-12 06:44:00,
2013-05-12 02:48:00,59.7,59.2,29.62,SW,229,0.0,0.0,98,0.00,,,0.00,meteohub,2013-05-12 06:48:00,
2013-05-12 02:54:00,59.5,59.0,29.63,SW,229,0.0,0.0,98,0.00,,,0.00,meteohub,2013-05-12 06:54:00,
2013-05-12 02:59:00,59.5,59.0,29.63,SW,229,0.0,0.0,98,0.00,,,0.00,meteohub,2013-05-12 06:59:00,
2013-05-12 03:04:00,59.4,58.8,29.64,SW,229,0.0,0.0,98,0.00,,,0.00,meteohub,2013-05-12 07:04:00,
2013-05-12 03:09:00,59.4,58.8,29.64,SW,229,0.0,0.0,98,0.00,,,0.00,meteohub,2013-05-12 07:09:00,
2013-05-12 03:14:00,59.4,58.8,29.64,SW,229,0.0,0.0,98,0.00,,,0.00,meteohub,2013-05-12 07:14:00,
2013-05-12 03:19:00,59.2,58.6,29.65,SW,229,0.0,0.0,98,0.00,,,0.00,meteohub,2013-05-12 07:19:00,
2013-05-12 03:24:00,59.2,58.6,29.65,SW,229,0.0,0.0,98,0.00,,,0.00,meteohub,2013-05-12 07:24:00,
2013-05-12 03:29:00,59.2,58.6,29.65,SW,229,0.0,0.0,98,0.00,,,0.00,meteohub,2013-05-12 07:29:00,
2013-05-12 03:34:00,59.2,58.6,29.65,SW,229,0.0,0.0,98,0.00,,,0.00,meteohub,2013-05-12 07:34:00,
2013-05-12 03:39:00,59.0,58.5,29.66,SW,229,0.0,0.0,98,0.00,,,0.00,meteohub,2013-05-12 07:39:00,
2013-05-12 03:44:00,59.0,58.5,29.65,SW,229,0.0,0.0,98,0.00,,,0.00,meteohub,2013-05-12 07:44:00,
2013-05-12 03:49:00,59.0,58.5,29.65,SW,229,0.0,0.0,98,0.00,,,0.00,meteohub,2013-05-12 07:49:00,
2013-05-12 03:54:00,58.8,58.3,29.65,SW,229,0.0,0.0,98,0.00,,,0.00,meteohub,2013-05-12 07:54:00,
2013-05-12 03:59:00,58.8,58.3,29.65,SW,229,0.0,0.0,98,0.00,,,0.00,meteohub,2013-05-12 07:59:00,
2013-05-12 04:04:00,58.8,58.3,29.65,SW,229,0.0,0.0,98,0.00,,,0.00,meteohub,2013-05-12 08:04:00,
2013-05-12 04:09:00,58.8,58.3,29.65,SW,229,0.0,0.0,98,0.00,,,0.00,meteohub,2013-05-12 08:09:00,
2013-05-12 04:14:00,58.6,58.1,29.65,SW,229,0.0,0.0,98,0.00,,,0.00,meteohub,2013-05-12 08:14:00,
2013-05-12 04:19:00,58.6,58.1,29.65,SW,229,0.0,0.0,98,0.00,,,0.00,meteohub,2013-05-12 08:19:00,
2013-05-12 04:24:00,58.5,57.9,29.65,SW,229,0.0,0.0,98,0.00,,,0.00,meteohub,2013-05-12 08:24:00,
2013-05-12 04:29:00,58.5,57.9,29.65,SW,229,0.0,0.0,98,0.00,,,0.00,meteohub,2013-05-12 08:29:00,
2013-05-12 04:34:00,58.3,57.7,29.65,SW,229,0.0,0.0,98,0.00,,,0.00,meteohub,2013-05-12 08:34:00,
2013-05-12 04:39:00,58.3,57.7,29.65,SW,229,0.0,0.0,98,0.00,,,0.00,meteohub,2013-05-12 08:39:00,
2013-05-12 04:44:00,58.1,57.6,29.65,SW,229,0.0,0.0,98,0.00,,,0.00,meteohub,2013-05-12 08:44:00,
2013-05-12 04:49:00,57.9,57.4,29.66,SW,229,0.0,0.0,98,0.00,,,0.00,meteohub,2013-05-12 08:49:00,
2013-05-12 04:54:00,57.7,57.2,29.67,SW,229,0.0,0.0,98,0.00,,,0.00,meteohub,2013-05-12 08:54:00,
2013-05-12 04:59:00,57.7,57.2,29.67,SW,229,0.0,0.0,98,0.00,,,0.00,meteohub,2013-05-12 08:59:00,
2013-05-12 05:04:00,57.7,57.2,29.65,SW,229,0.0,0.0,98,0.00,,,0.00,meteohub,2013-05-12 09:04:00,
2013-05-12 05:09:00,57.6,57.0,29.65,SW,229,0.0,0.0,98,0.00,,,0.00,meteohub,2013-05-12 09:09:00,
2013-05-12 05:14:00,57.6,57.0,29.65,SW,229,0.0,0.0,98,0.00,,,0.00,meteohub,2013-05-12 09:14:00,
2013-05-12 05:19:00,57.6,57.0,29.65,SW,229,0.0,0.0,98,0.00,,,0.00,meteohub,2013-05-12 09:19:00,
2013-05-12 05:24:00,57.6,57.0,29.66,SW,229,0.0,0.0,98,0.00,,,0.00,meteohub,2013-05-12 09:24:00,
2013-05-12 05:29:00,57.6,57.0,29.67,SW,229,0.0,0.0,98,0.00,,,0.00,meteohub,2013-05-12 09:29:00,
2013-05-12 05:34:00,57.6,57.0,29.66,SW,229,0.0,0.0,98,0.00,,,0.00,meteohub,2013-05-12 09:34:00,
2013-05-12 05:39:00,57.6,57.0,29.66,SW,229,0.0,0.0,98,0.00,,,0.00,meteohub,2013-05-12 09:39:00,
2013-05-12 05:44:00,57.6,57.0,29.67,SW,229,0.0,0.0,98,0.00,,,0.00,meteohub,2013-05-12 09:44:00,
2013-05-12 05:49:00,57.4,56.8,29.67,SW,229,0.0,0.0,98,0.00,,,0.00,meteohub,2013-05-12 09:49:00,
2013-05-12 05:54:00,57.2,56.7,29.68,SW,229,0.0,0.0,98,0.00,,,0.00,meteohub,2013-05-12 09:54:00,
2013-05-12 05:59:00,57.2,56.7,29.68,SW,229,0.0,0.0,98,0.00,,,0.00,meteohub,2013-05-12 09:59:00,
2013-05-12 06:04:00,57.0,56.5,29.68,SW,229,0.0,0.0,98,0.00,,,0.00,meteohub,2013-05-12 10:04:00,
2013-05-12 06:09:00,56.7,56.1,29.68,SW,229,0.0,0.0,98,0.01,,,0.01,meteohub,2013-05-12 10:09:00,
2013-05-12 06:14:00,56.3,55.8,29.68,SW,229,0.0,0.0,98,0.01,,,0.01,meteohub,2013-05-12 10:14:00,
2013-05-12 06:19:00,55.9,55.4,29.67,SW,229,0.0,0.0,98,0.03,,,0.03,meteohub,2013-05-12 10:19:00,
2013-05-12 06:24:00,55.9,55.4,29.67,SW,229,0.0,0.0,98,0.03,,,0.03,meteohub,2013-05-12 10:24:00,
2013-05-12 06:29:00,55.8,55.2,29.68,SW,230,0.0,0.0,98,0.03,,,0.03,meteohub,2013-05-12 10:29:00,
2013-05-12 06:34:00,55.6,55.0,29.68,SW,229,0.0,0.0,98,0.03,,,0.03,meteohub,2013-05-12 10:34:00,
2013-05-12 06:39:00,55.6,55.0,29.68,SW,229,0.0,0.0,98,0.03,,,0.03,meteohub,2013-05-12 10:39:00,
2013-05-12 06:44:00,55.2,54.7,29.68,SW,229,0.0,0.0,98,0.04,,,0.04,meteohub,2013-05-12 10:44:00,
2013-05-12 06:49:00,55.2,54.7,29.68,SW,229,3.0,0.0,98,0.04,,,0.04,meteohub,2013-05-12 10:49:00,
2013-05-12 06:54:00,55.0,54.5,29.69,SW,229,0.0,0.0,98,0.04,,,0.04,meteohub,2013-05-12 10:54:00,
2013-05-12 06:59:00,54.9,54.3,29.68,SW,229,0.0,3.0,98,0.04,,,0.04,meteohub,2013-05-12 10:59:00,
2013-05-12 07:04:00,54.9,54.3,29.67,SW,229,0.0,3.0,98,0.03,,,0.04,meteohub,2013-05-12 11:04:00,
2013-05-12 07:09:00,54.9,54.3,29.66,SW,229,0.0,0.0,98,0.03,,,0.04,meteohub,2013-05-12 11:09:00,
2013-05-12 07:14:00,54.9,54.3,29.66,SW,229,0.0,0.0,98,0.01,,,0.04,meteohub,2013-05-12 11:14:00,
2013-05-12 07:19:00,55.0,54.5,29.68,SW,229,0.0,0.0,98,0.01,,,0.04,meteohub,2013-05-12 11:19:00,
2013-05-12 07:24:00,55.0,54.5,29.68,SW,229,0.0,0.0,98,0.01,,,0.04,meteohub,2013-05-12 11:24:00,
2013-05-12 07:29:00,54.9,54.3,29.68,SW,229,0.0,0.0,98,0.01,,,0.04,meteohub,2013-05-12 11:29:00,
2013-05-12 07:34:00,54.9,54.3,29.68,SW,229,0.0,0.0,98,0.01,,,0.04,meteohub,2013-05-12 11:34:00,
2013-05-12 07:39:00,54.9,54.3,29.68,SW,229,0.0,0.0,98,0.01,,,0.04,meteohub,2013-05-12 11:39:00,
2013-05-12 07:44:00,54.9,54.3,29.68,WSW,238,0.0,0.0,98,0.00,,,0.04,meteohub,2013-05-12 11:44:00,
2013-05-12 07:49:00,54.7,54.1,29.68,WSW,238,0.0,1.0,98,0.00,,,0.04,meteohub,2013-05-12 11:49:00,
2013-05-12 07:54:00,54.7,54.1,29.67,WSW,238,0.0,1.0,98,0.00,,,0.04,meteohub,2013-05-12 11:54:00,
2013-05-12 07:59:00,54.3,53.8,29.68,WSW,238,0.0,1.0,98,0.00,,,0.04,meteohub,2013-05-12 11:59:00,
2013-05-12 08:04:00,54.3,53.8,29.67,SW,236,0.0,1.0,98,0.00,,,0.04,meteohub,2013-05-12 12:04:00,
2013-05-12 08:09:00,54.1,53.6,29.67,SW,236,0.0,1.0,98,0.00,,,0.04,meteohub,2013-05-12 12:09:00,
2013-05-12 08:14:00,54.5,54.0,29.67,SW,236,0.0,1.0,98,0.00,,,0.04,meteohub,2013-05-12 12:14:00,
2013-05-12 08:19:00,54.7,54.1,29.67,SW,236,0.0,1.0,98,0.00,,,0.04,meteohub,2013-05-12 12:19:00,
2013-05-12 08:24:00,54.9,54.3,29.67,SW,236,0.0,1.0,98,0.00,,,0.04,meteohub,2013-05-12 12:24:00,
2013-05-12 08:29:00,54.7,54.1,29.67,SW,236,0.0,1.0,98,0.00,,,0.04,meteohub,2013-05-12 12:29:00,
2013-05-12 08:34:00,54.9,54.3,29.67,SW,236,0.0,0.0,98,0.00,,,0.04,meteohub,2013-05-12 12:34:00,
2013-05-12 08:39:00,55.0,54.5,29.68,WSW,246,0.0,0.0,98,0.00,,,0.04,meteohub,2013-05-12 12:39:00,
2013-05-12 08:44:00,55.0,54.5,29.67,West,263,0.0,1.0,98,0.00,,,0.04,meteohub,2013-05-12 12:44:00,
2013-05-12 08:49:00,55.2,54.7,29.67,West,262,0.0,1.0,98,0.00,,,0.04,meteohub,2013-05-12 12:49:00,
2013-05-12 08:55:00,55.8,55.2,29.68,WSW,257,0.0,1.0,98,0.00,,,0.04,meteohub,2013-05-12 12:55:00,
2013-05-12 09:00:00,56.5,55.9,29.67,West,259,0.0,1.0,98,0.00,,,0.04,meteohub,2013-05-12 13:00:00,
2013-05-12 09:04:00,57.2,56.3,29.67,West,259,0.0,1.0,97,0.00,,,0.04,meteohub,2013-05-12 13:04:00,
2013-05-12 09:09:00,57.9,56.8,29.67,West,281,0.0,1.0,96,0.00,,,0.04,meteohub,2013-05-12 13:09:00,
2013-05-12 09:15:00,58.8,56.8,29.67,West,259,0.0,2.0,93,0.00,,,0.04,meteohub,2013-05-12 13:15:00,
2013-05-12 09:20:00,59.7,56.8,29.67,West,277,3.0,3.0,90,0.00,,,0.04,meteohub,2013-05-12 13:20:00,
2013-05-12 09:25:00,60.1,55.2,29.67,West,265,0.0,3.0,84,0.00,,,0.04,meteohub,2013-05-12 13:25:00,
2013-05-12 09:30:00,60.6,55.4,29.67,West,273,0.0,4.0,83,0.00,,,0.04,meteohub,2013-05-12 13:30:00,
2013-05-12 09:35:00,61.5,55.9,29.67,NNW,343,1.0,5.0,82,0.00,,,0.04,meteohub,2013-05-12 13:35:00,
2013-05-12 09:40:00,61.9,55.6,29.67,WSW,246,0.0,5.0,80,0.00,,,0.04,meteohub,2013-05-12 13:40:00,
2013-05-12 09:45:00,62.4,55.4,29.67,WSW,252,1.0,2.0,78,0.00,,,0.04,meteohub,2013-05-12 13:45:00,
2013-05-12 09:50:00,62.6,54.5,29.67,WNW,303,1.0,2.0,75,0.00,,,0.04,meteohub,2013-05-12 13:50:00,
2013-05-12 09:55:00,62.6,53.8,29.67,North,353,1.0,2.0,73,0.00,,,0.04,meteohub,2013-05-12 13:55:00,
2013-05-12 10:00:00,63.0,55.2,29.67,SW,214,0.0,2.0,76,0.00,,,0.04,meteohub,2013-05-12 14:00:00,
2013-05-12 10:05:00,63.3,54.1,29.67,East,88,1.0,3.0,72,0.00,,,0.04,meteohub,2013-05-12 14:05:00,
2013-05-12 10:10:00,63.7,54.9,29.67,ENE,68,0.0,3.0,73,0.00,,,0.04,meteohub,2013-05-12 14:10:00,
2013-05-12 10:15:00,64.2,54.7,29.67,West,263,0.0,2.0,71,0.00,,,0.04,meteohub,2013-05-12 14:15:00,
2013-05-12 10:20:00,64.9,55.8,29.67,WSW,250,0.0,2.0,72,0.00,,,0.04,meteohub,2013-05-12 14:20:00,
2013-05-12 10:25:00,65.1,54.7,29.67,ESE,115,0.0,2.0,69,0.00,,,0.04,meteohub,2013-05-12 14:25:00,
2013-05-12 10:30:00,65.5,53.4,29.66,WSW,246,0.0,3.0,65,0.00,,,0.04,meteohub,2013-05-12 14:30:00,
2013-05-12 10:35:00,65.8,55.0,29.66,WSW,242,1.0,5.0,68,0.00,,,0.04,meteohub,2013-05-12 14:35:00,
2013-05-12 10:40:00,66.2,54.9,29.66,WSW,255,1.0,5.0,67,0.00,,,0.04,meteohub,2013-05-12 14:40:00,
2013-05-12 10:45:00,66.0,54.0,29.67,West,273,1.0,5.0,65,0.00,,,0.04,meteohub,2013-05-12 14:45:00,
2013-05-12 10:50:00,66.4,53.8,29.67,NNW,328,0.0,4.0,64,0.00,,,0.04,meteohub,2013-05-12 14:50:00,
2013-05-12 10:55:00,66.9,53.4,29.66,NW,326,0.0,4.0,62,0.00,,,0.04,meteohub,2013-05-12 14:55:00,
2013-05-12 11:00:00,66.9,54.0,29.66,West,262,0.0,4.0,63,0.00,,,0.04,meteohub,2013-05-12 15:00:00,
2013-05-12 11:05:00,66.6,55.2,29.66,NE,34,0.0,2.0,67,0.00,,,0.04,meteohub,2013-05-12 15:05:00,
2013-05-12 11:10:00,66.9,53.1,29.66,SE,131,0.0,0.0,61,0.00,,,0.04,meteohub,2013-05-12 15:10:00,
2013-05-12 11:15:00,67.1,52.3,29.66,ENE,65,1.0,3.0,59,0.00,,,0.04,meteohub,2013-05-12 15:15:00,
2013-05-12 11:20:00,67.3,52.5,29.66,West,273,0.0,3.0,59,0.00,,,0.04,meteohub,2013-05-12 15:20:00,
2013-05-12 11:25:00,67.5,53.6,29.66,West,269,0.0,3.0,61,0.00,,,0.04,meteohub,2013-05-12 15:25:00,
2013-05-12 11:30:00,67.6,52.9,29.66,East,84,0.0,4.0,59,0.00,,,0.04,meteohub,2013-05-12 15:30:00,
2013-05-12 11:35:00,68.2,52.3,29.66,WSW,245,0.0,4.0,57,0.00,,,0.04,meteohub,2013-05-12 15:35:00,
2013-05-12 11:40:00,68.5,55.0,29.66,NE,50,1.0,4.0,62,0.00,,,0.04,meteohub,2013-05-12 15:40:00,
2013-05-12 11:45:00,68.5,51.8,29.66,West,271,1.0,3.0,55,0.00,,,0.04,meteohub,2013-05-12 15:45:00,
2013-05-12 11:50:00,68.4,51.1,29.66,West,262,0.0,3.0,54,0.00,,,0.04,meteohub,2013-05-12 15:50:00,
2013-05-12 11:55:00,67.8,52.0,29.66,WSW,257,0.0,3.0,57,0.00,,,0.04,meteohub,2013-05-12 15:55:00,
2013-05-12 12:00:00,68.5,53.2,29.66,West,270,1.0,3.0,58,0.00,,,0.04,meteohub,2013-05-12 16:00:00,
2013-05-12 12:05:00,69.4,51.6,29.65,WSW,249,1.0,3.0,53,0.00,,,0.04,meteohub,2013-05-12 16:05:00,
2013-05-12 12:10:00,69.6,49.6,29.65,WSW,240,1.0,3.0,49,0.00,,,0.04,meteohub,2013-05-12 16:10:00,
2013-05-12 12:15:00,69.4,50.0,29.65,West,266,0.0,3.0,50,0.00,,,0.04,meteohub,2013-05-12 16:15:00,
2013-05-12 12:20:00,69.1,49.6,29.65,West,278,0.0,4.0,50,0.00,,,0.04,meteohub,2013-05-12 16:20:00,
2013-05-12 12:25:00,68.5,50.7,29.65,WSW,240,2.0,5.0,53,0.00,,,0.04,meteohub,2013-05-12 16:25:00,
2013-05-12 12:30:00,68.4,51.6,29.65,WSW,253,0.0,5.0,55,0.00,,,0.04,meteohub,2013-05-12 16:30:00,
2013-05-12 12:35:00,68.4,52.5,29.65,West,269,0.0,5.0,57,0.00,,,0.04,meteohub,2013-05-12 16:35:00,
2013-05-12 12:40:00,69.6,49.1,29.65,West,274,0.0,4.0,48,0.00,,,0.04,meteohub,2013-05-12 16:40:00,
2013-05-12 12:45:00,70.3,50.9,29.65,West,262,1.0,4.0,50,0.00,,,0.04,meteohub,2013-05-12 16:45:00,
2013-05-12 12:50:00,70.2,48.4,29.65,West,266,3.0,6.0,46,0.00,,,0.04,meteohub,2013-05-12 16:50:00,
2013-05-12 12:55:00,69.4,50.0,29.65,WSW,251,1.0,7.0,50,0.00,,,0.04,meteohub,2013-05-12 16:55:00,
2013-05-12 13:00:00,69.4,51.1,29.65,West,264,1.0,7.0,52,0.00,,,0.04,meteohub,2013-05-12 17:00:00,
2013-05-12 13:05:00,69.3,49.3,29.65,WSW,253,4.0,7.0,49,0.00,,,0.04,meteohub,2013-05-12 17:05:00,
2013-05-12 13:10:00,69.3,47.7,29.65,SW,229,4.0,5.0,46,0.00,,,0.04,meteohub,2013-05-12 17:10:00,
2013-05-12 13:15:00,69.8,50.9,29.65,West,266,7.0,7.0,51,0.00,,,0.04,meteohub,2013-05-12 17:15:00,
2013-05-12 13:20:00,69.8,48.7,29.65,West,266,1.0,6.0,47,0.00,,,0.04,meteohub,2013-05-12 17:20:00,
2013-05-12 13:25:00,70.0,49.5,29.65,WSW,252,0.0,8.0,48,0.00,,,0.04,meteohub,2013-05-12 17:25:00,
2013-05-12 13:30:00,70.0,51.1,29.65,West,261,2.0,8.0,51,0.00,,,0.04,meteohub,2013-05-12 17:30:00,
2013-05-12 13:35:00,70.2,49.6,29.65,WSW,249,2.0,8.0,48,0.00,,,0.04,meteohub,2013-05-12 17:35:00,
2013-05-12 13:40:00,70.3,46.8,29.65,North,349,4.0,6.0,43,0.00,,,0.04,meteohub,2013-05-12 17:40:00,
2013-05-12 13:45:00,70.3,49.1,29.65,South,169,1.0,11.0,47,0.00,,,0.04,meteohub,2013-05-12 17:45:00,
2013-05-12 13:50:00,69.3,46.4,29.65,West,263,2.0,11.0,44,0.00,,,0.04,meteohub,2013-05-12 17:50:00,
2013-05-12 13:55:00,69.3,48.7,29.65,WSW,252,1.0,11.0,48,0.00,,,0.04,meteohub,2013-05-12 17:55:00,
2013-05-12 14:00:00,69.3,48.2,29.65,West,268,0.0,9.0,47,0.00,,,0.04,meteohub,2013-05-12 18:00:00,
2013-05-12 14:05:00,68.5,48.0,29.65,NW,314,1.0,5.0,48,0.00,,,0.04,meteohub,2013-05-12 18:05:00,
2013-05-12 14:10:00,68.5,49.6,29.65,West,274,1.0,5.0,51,0.00,,,0.04,meteohub,2013-05-12 18:10:00,
2013-05-12 14:15:00,69.1,46.8,29.65,NE,39,0.0,5.0,45,0.00,,,0.04,meteohub,2013-05-12 18:15:00,
2013-05-12 14:20:00,69.1,46.8,29.65,WSW,240,2.0,6.0,45,0.00,,,0.04,meteohub,2013-05-12 18:20:00,
2013-05-12 14:25:00,69.1,46.2,29.65,West,269,3.0,7.0,44,0.00,,,0.04,meteohub,2013-05-12 18:25:00,
2013-05-12 14:30:00,69.1,45.0,29.65,WSW,258,2.0,7.0,42,0.00,,,0.04,meteohub,2013-05-12 18:30:00,
2013-05-12 14:35:00,69.4,44.1,29.65,West,278,3.0,8.0,40,0.00,,,0.04,meteohub,2013-05-12 18:35:00,
2013-05-12 14:40:00,69.4,44.1,29.65,WSW,248,4.0,8.0,40,0.00,,,0.04,meteohub,2013-05-12 18:40:00,
2013-05-12 14:45:00,69.3,44.6,29.65,ENE,65,1.0,8.0,41,0.00,,,0.04,meteohub,2013-05-12 18:45:00,
2013-05-12 14:50:00,69.3,43.2,29.65,SW,235,0.0,7.0,39,0.00,,,0.04,meteohub,2013-05-12 18:50:00,
2013-05-12 14:55:00,69.3,43.2,29.65,West,270,2.0,6.0,39,0.00,,,0.04,meteohub,2013-05-12 18:55:00,
2013-05-12 15:00:00,69.3,41.9,29.65,West,261,4.0,5.0,37,0.00,,,0.04,meteohub,2013-05-12 19:00:00,
2013-05-12 15:05:00,69.3,43.9,29.65,SW,231,1.0,5.0,40,0.00,,,0.04,meteohub,2013-05-12 19:05:00,
2013-05-12 15:10:00,69.3,41.2,29.65,West,260,1.0,5.0,36,0.00,,,0.04,meteohub,2013-05-12 19:10:00,
2013-05-12 15:15:00,69.1,41.0,29.65,SW,218,3.0,5.0,36,0.00,,,0.04,meteohub,2013-05-12 19:15:00,
2013-05-12 15:20:00,68.7,39.9,29.65,WSW,242,3.0,4.0,35,0.00,,,0.04,meteohub,2013-05-12 19:20:00,
2013-05-12 15:25:00,68.5,40.5,29.65,West,274,1.0,5.0,36,0.00,,,0.04,meteohub,2013-05-12 19:25:00,
2013-05-12 15:30:00,68.5,40.5,29.65,WSW,252,3.0,5.0,36,0.00,,,0.04,meteohub,2013-05-12 19:30:00,
2013-05-12 15:35:00,68.7,41.4,29.65,WSW,251,1.0,7.0,37,0.00,,,0.04,meteohub,2013-05-12 19:35:00,
2013-05-12 15:40:00,68.4,40.3,29.65,SW,233,6.0,7.0,36,0.00,,,0.04,meteohub,2013-05-12 19:40:00,
2013-05-12 15:45:00,67.3,44.1,29.65,West,281,1.0,7.0,43,0.00,,,0.04,meteohub,2013-05-12 19:45:00,
2013-05-12 15:50:00,66.7,44.1,29.65,NE,46,1.0,7.0,44,0.00,,,0.04,meteohub,2013-05-12 19:50:00,
2013-05-12 15:55:00,66.6,42.8,29.65,WNW,291,0.0,7.0,42,0.00,,,0.04,meteohub,2013-05-12 19:55:00,
2013-05-12 16:00:00,66.7,45.3,29.65,WSW,249,0.0,7.0,46,0.00,,,0.04,meteohub,2013-05-12 20:00:00,
2013-05-12 16:05:00,66.9,43.2,29.65,NW,307,1.0,5.0,42,0.00,,,0.04,meteohub,2013-05-12 20:05:00,
2013-05-12 16:10:00,66.7,41.7,29.65,West,274,0.0,6.0,40,0.00,,,0.04,meteohub,2013-05-12 20:10:00,
2013-05-12 16:15:00,66.9,42.4,29.65,WNW,302,0.0,6.0,41,0.00,,,0.04,meteohub,2013-05-12 20:15:00,
2013-05-12 16:20:00,66.6,40.1,29.66,WSW,255,0.0,6.0,38,0.00,,,0.04,meteohub,2013-05-12 20:20:00,
2013-05-12 16:25:00,65.8,42.1,29.66,ENE,73,1.0,3.0,42,0.00,,,0.04,meteohub,2013-05-12 20:25:00,
2013-05-12 16:30:00,66.0,41.7,29.66,West,278,1.0,4.0,41,0.00,,,0.04,meteohub,2013-05-12 20:30:00,
2013-05-12 16:35:00,66.2,41.2,29.66,WSW,256,2.0,4.0,40,0.00,,,0.04,meteohub,2013-05-12 20:35:00,
2013-05-12 16:40:00,65.8,39.6,29.66,East,79,1.0,4.0,38,0.00,,,0.04,meteohub,2013-05-12 20:40:00,
2013-05-12 16:45:00,65.8,41.5,29.66,NW,309,0.0,4.0,41,0.00,,,0.04,meteohub,2013-05-12 20:45:00,
2013-05-12 16:50:00,65.7,42.6,29.66,WSW,257,1.0,4.0,43,0.00,,,0.04,meteohub,2013-05-12 20:50:00,
2013-05-12 16:55:00,65.1,40.3,29.66,West,264,0.0,4.0,40,0.00,,,0.04,meteohub,2013-05-12 20:55:00,
2013-05-12 17:00:00,65.5,42.4,29.67,WSW,238,1.0,3.0,43,0.00,,,0.04,meteohub,2013-05-12 21:00:00,
2013-05-12 17:05:00,65.8,39.6,29.67,NW,315,0.0,3.0,38,0.00,,,0.04,meteohub,2013-05-12 21:05:00,
2013-05-12 17:10:00,65.8,38.8,29.67,West,260,2.0,5.0,37,0.00,,,0.04,meteohub,2013-05-12 21:10:00,
2013-05-12 17:15:00,65.7,37.9,29.67,West,260,2.0,5.0,36,0.00,,,0.04,meteohub,2013-05-12 21:15:00,
2013-05-12 17:20:00,64.9,36.0,29.68,East,86,2.0,6.0,34,0.00,,,0.04,meteohub,2013-05-12 21:20:00,
2013-05-12 17:25:00,64.8,37.2,29.68,West,281,1.0,6.0,36,0.00,,,0.04,meteohub,2013-05-12 21:25:00,
2013-05-12 17:30:00,64.8,37.2,29.68,West,264,0.0,6.0,36,0.00,,,0.04,meteohub,2013-05-12 21:30:00,
2013-05-12 17:35:00,64.8,38.5,29.69,NE,49,3.0,5.0,38,0.00,,,0.04,meteohub,2013-05-12 21:35:00,
2013-05-12 17:40:00,64.6,34.9,29.69,WSW,254,1.0,4.0,33,0.00,,,0.04,meteohub,2013-05-12 21:40:00,
2013-05-12 17:45:00,64.2,38.7,29.69,NNW,335,0.0,6.0,39,0.00,,,0.04,meteohub,2013-05-12 21:45:00,
2013-05-12 17:50:00,64.0,35.1,29.70,WNW,285,0.0,6.0,34,0.00,,,0.04,meteohub,2013-05-12 21:50:00,
2013-05-12 17:55:00,63.7,35.6,29.70,West,263,0.0,6.0,35,0.00,,,0.04,meteohub,2013-05-12 21:55:00,
2013-05-12 18:00:00,63.7,36.1,29.70,West,273,0.0,5.0,36,0.00,,,0.04,meteohub,2013-05-12 22:00:00,
2013-05-12 18:05:00,63.3,35.2,29.70,West,262,1.0,5.0,35,0.00,,,0.04,meteohub,2013-05-12 22:05:00,
2013-05-12 18:10:00,63.1,36.5,29.71,East,92,0.0,6.0,37,0.00,,,0.04,meteohub,2013-05-12 22:10:00,
2013-05-12 18:15:00,63.0,36.3,29.71,West,269,2.0,6.0,37,0.00,,,0.04,meteohub,2013-05-12 22:15:00,
2013-05-12 18:20:00,62.8,36.1,29.71,West,259,2.0,6.0,37,0.00,,,0.04,meteohub,2013-05-12 22:20:00,
2013-05-12 18:25:00,62.4,36.5,29.72,West,273,1.0,4.0,38,0.00,,,0.04,meteohub,2013-05-12 22:25:00,
2013-05-12 18:30:00,62.1,35.4,29.72,WSW,252,1.0,4.0,37,0.00,,,0.04,meteohub,2013-05-12 22:30:00,
2013-05-12 18:35:00,61.9,34.0,29.72,North,357,0.0,4.0,35,0.00,,,0.04,meteohub,2013-05-12 22:35:00,
2013-05-12 18:40:00,61.7,35.8,29.73,WSW,252,0.0,4.0,38,0.00,,,0.04,meteohub,2013-05-12 22:40:00,
2013-05-12 18:45:00,61.7,35.8,29.73,NNW,333,1.0,3.0,38,0.00,,,0.04,meteohub,2013-05-12 22:45:00,
2013-05-12 18:50:00,61.7,35.2,29.73,West,262,0.0,3.0,37,0.00,,,0.04,meteohub,2013-05-12 22:50:00,
2013-05-12 18:55:00,61.5,37.6,29.73,West,278,0.0,2.0,41,0.00,,,0.04,meteohub,2013-05-12 22:55:00,
2013-05-12 19:00:00,61.3,35.6,29.74,SW,224,1.0,3.0,38,0.00,,,0.04,meteohub,2013-05-12 23:00:00,
2013-05-12 19:05:00,61.2,35.4,29.74,WSW,255,0.0,5.0,38,0.00,,,0.04,meteohub,2013-05-12 23:05:00,
2013-05-12 19:10:00,60.8,35.6,29.74,West,266,1.0,5.0,39,0.00,,,0.04,meteohub,2013-05-12 23:10:00,
2013-05-12 19:15:00,60.4,35.4,29.75,WSW,255,3.0,6.0,39,0.00,,,0.04,meteohub,2013-05-12 23:15:00,
2013-05-12 19:20:00,60.1,35.6,29.75,WSW,249,1.0,6.0,40,0.00,,,0.04,meteohub,2013-05-12 23:20:00,
2013-05-12 19:25:00,59.7,34.7,29.75,WSW,249,0.0,4.0,39,0.00,,,0.04,meteohub,2013-05-12 23:25:00,
2013-05-12 19:30:00,59.5,37.0,29.75,WSW,249,0.0,4.0,43,0.00,,,0.04,meteohub,2013-05-12 23:30:00,
2013-05-12 19:35:00,59.2,32.9,29.75,SW,232,1.0,2.0,37,0.00,,,0.04,meteohub,2013-05-12 23:35:00,
2013-05-12 19:40:00,59.0,33.4,29.76,West,267,0.0,3.0,38,0.00,,,0.04,meteohub,2013-05-12 23:40:00,
2013-05-12 19:45:00,58.8,32.5,29.76,WNW,300,0.0,3.0,37,0.00,,,0.04,meteohub,2013-05-12 23:45:00,
2013-05-12 19:50:00,58.6,33.1,29.77,West,267,1.0,3.0,38,0.00,,,0.04,meteohub,2013-05-12 23:50:00,
2013-05-12 19:55:00,58.5,32.4,29.77,ESE,110,0.0,6.0,37,0.00,,,0.04,meteohub,2013-05-12 23:55:00,
2013-05-12 20:00:00,58.3,33.4,29.78,WSW,239,2.0,6.0,39,0.00,,,0.04,meteohub,2013-05-13 00:00:00,
2013-05-12 20:05:00,57.9,31.1,29.78,SW,236,1.0,6.0,36,0.00,,,0.04,meteohub,2013-05-13 00:05:00,
2013-05-12 20:10:00,57.7,31.6,29.78,WSW,239,1.0,4.0,37,0.00,,,0.04,meteohub,2013-05-13 00:10:00,
2013-05-12 20:15:00,57.7,32.9,29.78,West,259,0.0,4.0,39,0.00,,,0.04,meteohub,2013-05-13 00:15:00,
2013-05-12 20:20:00,57.4,33.3,29.79,WSW,255,0.0,4.0,40,0.00,,,0.04,meteohub,2013-05-13 00:20:00,
2013-05-12 20:25:00,57.0,32.4,29.79,WSW,253,0.0,3.0,39,0.00,,,0.04,meteohub,2013-05-13 00:25:00,
2013-05-12 20:30:00,57.0,32.9,29.79,WSW,238,2.0,3.0,40,0.00,,,0.04,meteohub,2013-05-13 00:30:00,
2013-05-12 20:35:00,56.8,32.2,29.79,West,276,0.0,4.0,39,0.00,,,0.04,meteohub,2013-05-13 00:35:00,
2013-05-12 20:40:00,56.7,33.3,29.80,WSW,257,2.0,4.0,41,0.00,,,0.04,meteohub,2013-05-13 00:40:00,
2013-05-12 20:45:00,56.5,33.6,29.80,WSW,257,0.0,4.0,42,0.00,,,0.04,meteohub,2013-05-13 00:45:00,
2013-05-12 20:50:00,56.1,31.5,29.81,West,266,0.0,3.0,39,0.00,,,0.04,meteohub,2013-05-13 00:50:00,
2013-05-12 20:55:00,56.1,34.0,29.81,WNW,282,0.0,3.0,43,0.00,,,0.04,meteohub,2013-05-13 00:55:00,
2013-05-12 21:00:00,55.8,34.2,29.81,SW,231,1.0,2.0,44,0.00,,,0.04,meteohub,2013-05-13 01:00:00,
2013-05-12 21:05:00,55.6,33.4,29.82,West,269,0.0,4.0,43,0.00,,,0.04,meteohub,2013-05-13 01:05:00,
2013-05-12 21:10:00,55.6,34.5,29.82,WNW,288,0.0,4.0,45,0.00,,,0.04,meteohub,2013-05-13 01:10:00,
2013-05-12 21:15:00,55.2,34.2,29.83,WSW,249,2.0,4.0,45,0.00,,,0.04,meteohub,2013-05-13 01:15:00,
2013-05-12 21:20:00,55.2,35.4,29.83,WSW,250,1.0,3.0,47,0.00,,,0.04,meteohub,2013-05-13 01:20:00,
2013-05-12 21:25:00,55.2,34.2,29.83,WSW,248,2.0,3.0,45,0.00,,,0.04,meteohub,2013-05-13 01:25:00,
2013-05-12 21:30:00,55.2,33.6,29.83,West,271,1.0,3.0,44,0.00,,,0.04,meteohub,2013-05-13 01:30:00,
2013-05-12 21:35:00,55.2,33.1,29.84,WSW,239,2.0,3.0,43,0.00,,,0.04,meteohub,2013-05-13 01:35:00,
2013-05-12 21:40:00,55.2,32.5,29.84,WSW,258,1.0,3.0,42,0.00,,,0.04,meteohub,2013-05-13 01:40:00,
2013-05-12 21:45:00,55.0,31.8,29.85,WSW,255,0.0,5.0,41,0.00,,,0.04,meteohub,2013-05-13 01:45:00,
2013-05-12 21:50:00,54.9,34.0,29.85,East,94,0.0,5.0,45,0.00,,,0.04,meteohub,2013-05-13 01:50:00,
2013-05-12 21:55:00,54.5,31.8,29.85,WSW,256,1.0,5.0,42,0.00,,,0.04,meteohub,2013-05-13 01:55:00,
2013-05-12 22:00:00,54.3,32.4,29.86,WSW,257,0.0,6.0,43,0.00,,,0.04,meteohub,2013-05-13 02:00:00,
2013-05-12 22:05:00,54.1,31.5,29.86,WSW,253,2.0,6.0,42,0.00,,,0.04,meteohub,2013-05-13 02:05:00,
2013-05-12 22:10:00,54.0,32.5,29.86,SW,233,3.0,4.0,44,0.00,,,0.04,meteohub,2013-05-13 02:10:00,
2013-05-12 22:15:00,54.0,32.5,29.87,West,269,0.0,5.0,44,0.00,,,0.04,meteohub,2013-05-13 02:15:00,
2013-05-12 22:20:00,53.8,31.8,29.87,West,264,1.0,5.0,43,0.00,,,0.04,meteohub,2013-05-13 02:20:00,
2013-05-12 22:25:00,53.4,32.0,29.87,West,273,0.0,3.0,44,0.00,,,0.04,meteohub,2013-05-13 02:25:00,
2013-05-12 22:30:00,53.2,32.4,29.87,WSW,238,0.0,5.0,45,0.00,,,0.04,meteohub,2013-05-13 02:30:00,
2013-05-12 22:35:00,53.1,32.9,29.87,West,262,0.0,5.0,46,0.00,,,0.04,meteohub,2013-05-13 02:35:00,
2013-05-12 22:40:00,52.9,32.2,29.87,West,270,0.0,5.0,45,0.00,,,0.04,meteohub,2013-05-13 02:40:00,
2013-05-12 22:45:00,52.9,33.3,29.88,West,260,0.0,3.0,47,0.00,,,0.04,meteohub,2013-05-13 02:45:00,
2013-05-12 22:50:00,52.7,33.1,29.88,SW,232,0.0,3.0,47,0.00,,,0.04,meteohub,2013-05-13 02:50:00,
2013-05-12 22:55:00,52.5,33.4,29.88,West,271,0.0,3.0,48,0.00,,,0.04,meteohub,2013-05-13 02:55:00,
2013-05-12 23:00:00,52.3,32.7,29.88,WSW,252,1.0,3.0,47,0.00,,,0.04,meteohub,2013-05-13 03:00:00,
2013-05-12 23:05:00,52.2,32.5,29.88,WSW,251,0.0,3.0,47,0.00,,,0.04,meteohub,2013-05-13 03:05:00,
2013-05-12 23:10:00,51.8,33.8,29.88,West,276,0.0,4.0,50,0.00,,,0.04,meteohub,2013-05-13 03:10:00,
2013-05-12 23:15:00,51.6,33.6,29.89,WSW,248,0.0,4.0,50,0.00,,,0.04,meteohub,2013-05-13 03:15:00,
2013-05-12 23:20:00,51.4,32.9,29.89,WSW,247,0.0,4.0,49,0.00,,,0.04,meteohub,2013-05-13 03:20:00,
2013-05-12 23:25:00,51.3,33.3,29.89,WSW,255,0.0,2.0,50,0.00,,,0.04,meteohub,2013-05-13 03:25:00,
2013-05-12 23:30:00,51.1,33.1,29.89,WSW,256,0.0,2.0,50,0.00,,,0.04,meteohub,2013-05-13 03:30:00,
2013-05-12 23:36:00,50.7,33.3,29.89,West,263,0.0,2.0,51,0.00,,,0.04,meteohub,2013-05-13 03:36:00,
2013-05-12 23:41:00,50.7,33.3,29.90,SW,227,0.0,3.0,51,0.00,,,0.04,meteohub,2013-05-13 03:41:00,
2013-05-12 23:46:00,50.5,33.6,29.90,West,277,0.0,3.0,52,0.00,,,0.04,meteohub,2013-05-13 03:46:00,
2013-05-12 23:51:00,50.5,33.6,29.90,West,262,0.0,2.0,52,0.00,,,0.04,meteohub,2013-05-13 03:51:00,
2013-05-12 23:56:00,50.4,33.4,29.90,West,264,0.0,2.0,52,0.00,,,0.04,meteohub,2013-05-13 03:56:00,